Weather History for Pompano Beach, FL

Change the Weather History Date:

Tuesday, October 1, 2013

  Actual Average Record
Temperature  
Mean Temperature 84 °F -  
Max Temperature 87 °F 89 °F 96 °F (1980)
Min Temperature 81 °F 72 °F 64 °F (1976)
Cooling Degree Days 19    
Growing Degree Days 34 (Base 50)    
Moisture  
Dew Point 71 °F    
Average Humidity 66    
Maximum Humidity 72    
Minimum Humidity 59    
Precipitation  
Precipitation 0.00 in - - ()
Sea Level Pressure  
Sea Level Pressure 30.01 in    
Wind  
Wind Speed 10 mph (East)    
Max Wind Speed 15 mph    
Max Gust Speed 20 mph    
Visibility 10 miles    
Events      
Averages and records for this station are not official NWS values.
T = Trace of Precipitation, MM = Missing Value Source: NWS Daily Summary

Daily Weather History Graph

Daily Weather History Graph

Search for Another Location

Airport:

Trip Planner

Search our weather history database for the weather conditions in past years. The results will help you decide how hot, cold, wet, or windy it might be!

Date:

Astronomy

Oct. 01, 2013 Rise Set
Actual Time 7:12 AM EDT 7:06 PM EDT
Civil Twilight 6:49 AM EDT 7:29 PM EDT
Nautical Twilight 6:23 AM EDT 7:56 PM EDT
Astronomical Twilight 5:56 AM EDT 8:23 PM EDT
Moon 4:02 AM EDT (10/1) 4:55 PM EDT (10/1)
Length of Visible Light 12h 39m
Length of Day
11h 53m
Waning Crescent, 12% of the Moon is Illuminated
Oct 1
Waning Crescent
Oct 4
New
Oct 11
First Quarter
Oct 18
Full
Oct 26
Last Quarter

Hourly Weather History & Observations

Time (EDT) Temp. Heat Index Dew Point Humidity Pressure Visibility Wind Dir Wind Speed Gust Speed Precip Events Conditions
12:53 AM 82.0 °F 86.3 °F 71.1 °F 69% 30.00 in 10.0 mi ESE 9.2 mph - N/A   Unknown
1:53 AM 82.0 °F 85.5 °F 69.1 °F 65% 29.99 in 10.0 mi East 10.4 mph - N/A   Unknown
2:53 AM 82.0 °F 85.5 °F 69.1 °F 65% 29.98 in 10.0 mi East 8.1 mph - N/A   Unknown
3:53 AM 81.0 °F 84.1 °F 69.1 °F 67% 29.97 in 10.0 mi ESE 6.9 mph - N/A   Unknown
4:53 AM 81.0 °F 84.1 °F 69.1 °F 67% 29.97 in 10.0 mi East 8.1 mph - N/A   Unknown
5:53 AM 81.0 °F 84.9 °F 71.1 °F 72% 29.98 in 10.0 mi East 6.9 mph - N/A   Unknown
6:53 AM 81.0 °F 84.9 °F 71.1 °F 72% 29.99 in 10.0 mi ESE 6.9 mph - N/A   Unknown
7:53 AM 82.0 °F 86.7 °F 72.0 °F 71% 30.00 in 10.0 mi East 6.9 mph - N/A   Unknown
8:53 AM 82.9 °F 88.0 °F 72.0 °F 69% 30.02 in 10.0 mi East 8.1 mph - N/A   Scattered Clouds
9:53 AM 86.0 °F 92.2 °F 72.0 °F 63% 30.03 in 10.0 mi ENE 11.5 mph - N/A   Unknown
10:53 AM 86.0 °F 92.2 °F 72.0 °F 63% 30.04 in 10.0 mi East 11.5 mph - N/A   Scattered Clouds
11:53 AM 86.0 °F 91.5 °F 71.1 °F 61% 30.04 in 10.0 mi ENE 12.7 mph - N/A   Scattered Clouds
12:53 PM 86.0 °F 92.2 °F 72.0 °F 63% 30.03 in 10.0 mi East 13.8 mph - N/A   Scattered Clouds
1:53 PM 87.1 °F 93.6 °F 72.0 °F 61% 30.01 in 10.0 mi ENE 11.5 mph - N/A   Unknown
2:53 PM 86.0 °F 92.2 °F 72.0 °F 63% 30.00 in 10.0 mi ENE 15.0 mph 19.6 mph N/A   Scattered Clouds
3:53 PM 86.0 °F 90.7 °F 70.0 °F 59% 29.99 in 10.0 mi ENE 13.8 mph - N/A   Scattered Clouds
4:53 PM 84.9 °F 90.1 °F 71.1 °F 63% 29.98 in 10.0 mi ENE 13.8 mph - N/A   Partly Cloudy
5:53 PM 84.0 °F 88.4 °F 70.0 °F 63% 29.99 in 10.0 mi ENE 13.8 mph 19.6 mph N/A   Unknown
6:53 PM 82.0 °F 85.9 °F 70.0 °F 67% 30.01 in 10.0 mi ENE 12.7 mph - N/A   Partly Cloudy
7:53 PM 82.0 °F 85.9 °F 70.0 °F 67% 30.02 in 10.0 mi ENE 12.7 mph - N/A   Partly Cloudy
8:53 PM 82.0 °F 86.3 °F 71.1 °F 69% 30.01 in 10.0 mi ENE 12.7 mph - N/A   Clear
9:53 PM 82.0 °F 86.3 °F 71.1 °F 69% 30.04 in 10.0 mi East 11.5 mph - N/A   Scattered Clouds
10:53 PM 82.0 °F 86.3 °F 71.1 °F 69% 30.04 in 10.0 mi ENE 13.8 mph 18.4 mph N/A   Unknown
11:53 PM 81.0 °F 84.9 °F 71.1 °F 72% 30.03 in 10.0 mi ENE 9.2 mph - N/A   Partly Cloudy